Location: Barrio Pajares
(40.5500°N, 4.1667°W)
Time: 09:32:56
(UTC+00:00)

USA 234 - Visible Passes

Search period start: 19 July 2024 00:00
Search period end: 29 July 2024 00:00
Orbit: 1100 x 1107 km, 123.0° (Epoch: 08 July)

Date Brightness Start Highest point End Pass type
(mag) Time Alt. Az. Time Alt. Az. Time Alt. Az.
19 Jul 3.2 01:33:46 10° NE 01:40:20 73° SE 01:41:40 57° SSW visible
19 Jul 4.3 03:17:04 10° NE 03:23:01 39° NNW 03:28:58 10° W visible
20 Jul 4.0 00:51:23 10° ENE 00:56:53 36° ESE 00:56:53 36° ESE visible
20 Jul 3.5 02:34:05 10° NE 02:40:32 64° NW 02:44:12 27° WSW visible
20 Jul 4.8 04:17:28 10° NE 04:22:45 27° NNW 04:28:03 10° WNW visible
21 Jul 5.1 00:10:09 10° E 00:12:07 15° E 00:12:07 15° E visible
21 Jul 3.2 01:51:15 10° NE 01:57:48 73° SE 01:59:27 52° SSW visible
21 Jul 4.3 03:34:32 10° NE 03:40:30 39° NNW 03:46:27 10° W visible
22 Jul 3.9 01:08:51 10° ENE 01:14:42 37° SE 01:14:42 37° SE visible
22 Jul 3.5 02:51:33 10° NE 02:58:00 63° NW 03:02:01 24° WSW visible
23 Jul 5.1 00:27:35 10° E 00:29:57 15° ESE 00:29:57 15° ESE visible
23 Jul 3.2 02:08:43 10° NE 02:15:17 74° SE 02:17:17 47° SSW visible
23 Jul 4.2 03:52:00 10° NE 03:57:58 39° NNW 04:03:54 10° W visible
24 Jul 3.9 01:26:18 10° ENE 01:32:18 37° SE 01:32:34 37° SE visible
24 Jul 3.5 03:09:01 10° NE 03:15:28 63° NW 03:19:54 21° WSW visible
25 Jul 5.0 00:45:02 10° E 00:47:51 16° ESE 00:47:51 16° ESE visible
25 Jul 3.2 02:26:11 10° NE 02:32:45 74° SE 02:35:11 41° SSW visible
25 Jul 4.2 04:09:28 10° NE 04:15:26 39° NNW 04:21:22 10° W visible
26 Jul 3.9 01:43:46 10° ENE 01:49:46 37° SE 01:50:29 36° SE visible
26 Jul 3.5 03:26:29 10° NE 03:32:57 63° NW 03:37:49 18° WSW visible
27 Jul 5.0 01:02:29 10° E 01:05:48 17° ESE 01:05:48 17° ESE visible
27 Jul 3.2 02:43:39 10° NE 02:50:13 75° SE 02:53:08 36° SSW visible
27 Jul 4.2 04:26:57 10° NE 04:32:53 38° NNW 04:38:49 10° W visible
28 Jul 3.9 02:01:14 10° ENE 02:07:14 38° SE 02:08:29 35° SSE visible
28 Jul 3.5 03:43:58 10° NE 03:50:25 63° NW 03:55:49 15° WSW visible
